{"data":{"norad_id":62740,"epoch":"2026-05-25T04:42:49.546656Z","epoch_age_seconds":61235,"freshness":"FRESH","line1":"1 62740U 25014F   26145.19640679  .00024877  00000+0  91007-3 0  9998","line2":"2 62740  43.0000  82.7108 0001151 258.1539 101.9184 15.27594937 74956","mean_motion":15.27594937,"eccentricity":0.0001151,"inclination_deg":43,"raan_deg":82.7108,"arg_perigee_deg":258.1539,"mean_anomaly_deg":101.9184,"bstar":0.00091007,"rev_number":7495,"period_min":94.265826962478,"perigee_km":482.2146522809,"apogee_km":483.7940870242,"semimajor_km":6861.1413696525,"source":"CELESTRAK","updated_at":"2026-05-25T13:38:19.738947Z"}}